TimeEDT,TemperatureF,Dew PointF,Humidity,Sea Level PressureIn,VisibilityMPH,Wind Direction,Wind SpeedMPH,Gust SpeedMPH,PrecipitationIn,Events,Conditions,WindDirDegrees,DateUTC
12:14 AM,57.2,42.8,59,29.92,10.0,West,20.7,26.5,N/A,,Clear,260,2012-10-05 04:14:00
12:34 AM,55.9,42.6,61,29.93,10.0,West,17.3,33.4,N/A,,Clear,260,2012-10-05 04:34:00
12:54 AM,54.9,41.4,60,29.94,10.0,West,21.9,29.9,N/A,,Clear,260,2012-10-05 04:54:00
1:14 AM,54.3,40.5,59,29.95,10.0,West,15.0,26.5,N/A,,Clear,260,2012-10-05 05:14:00
1:34 AM,53.6,39.9,60,29.95,10.0,WSW,15.0,25.3,N/A,,Scattered Clouds,250,2012-10-05 05:34:00
1:54 AM,53.6,39.2,58,29.95,10.0,West,16.1,20.7,N/A,,Mostly Cloudy,270,2012-10-05 05:54:00
2:14 AM,52.9,38.8,59,29.96,10.0,West,15.0,27.6,N/A,,Overcast,260,2012-10-05 06:14:00
2:34 AM,52.9,39.7,61,29.97,10.0,West,17.3,25.3,N/A,,Overcast,260,2012-10-05 06:34:00
2:54 AM,52.7,39.7,61,29.97,10.0,West,15.0,26.5,N/A,,Overcast,260,2012-10-05 06:54:00
3:14 AM,51.8,39.4,63,29.96,10.0,WSW,16.1,25.3,N/A,,Overcast,250,2012-10-05 07:14:00
3:34 AM,51.3,39.2,63,29.96,10.0,West,17.3,25.3,N/A,,Mostly Cloudy,260,2012-10-05 07:34:00
3:54 AM,50.9,39.0,64,29.95,10.0,West,17.3,24.2,N/A,,Mostly Cloudy,260,2012-10-05 07:54:00
4:14 AM,50.2,38.1,63,29.95,10.0,WSW,18.4,23.0,N/A,,Overcast,250,2012-10-05 08:14:00
4:35 AM,50.2,39.0,66,29.95,10.0,West,18.4,24.2,N/A,,Mostly Cloudy,260,2012-10-05 08:35:00
4:54 AM,50.0,38.5,65,29.95,10.0,WSW,18.4,24.2,N/A,,Overcast,250,2012-10-05 08:54:00
5:14 AM,49.6,38.3,65,29.96,10.0,WSW,17.3,29.9,N/A,,Overcast,250,2012-10-05 09:14:00
5:35 AM,49.5,38.3,65,29.97,10.0,WSW,13.8,20.7,N/A,,Overcast,240,2012-10-05 09:35:00
5:54 AM,49.3,38.1,65,29.96,10.0,WSW,12.7,23.0,N/A,,Overcast,250,2012-10-05 09:54:00
6:14 AM,49.1,37.2,64,29.95,10.0,WSW,18.4,28.8,N/A,,Overcast,250,2012-10-05 10:14:00
6:34 AM,49.1,37.6,64,29.95,10.0,WSW,19.6,25.3,N/A,,Overcast,250,2012-10-05 10:34:00
6:54 AM,49.1,37.9,65,29.96,10.0,West,21.9,28.8,N/A,,Overcast,260,2012-10-05 10:54:00
7:14 AM,48.6,37.6,66,29.96,10.0,West,13.8,27.6,N/A,,Overcast,260,2012-10-05 11:14:00
7:34 AM,48.4,37.6,66,29.96,10.0,West,19.6,29.9,N/A,,Overcast,260,2012-10-05 11:34:00
7:54 AM,48.2,37.6,67,29.96,10.0,West,18.4,27.6,N/A,,Overcast,260,2012-10-05 11:54:00
8:14 AM,48.2,36.9,65,29.96,10.0,West,21.9,27.6,N/A,,Overcast,260,2012-10-05 12:14:00
8:34 AM,47.8,36.7,65,29.97,10.0,West,21.9,25.3,N/A,,Overcast,260,2012-10-05 12:34:00
8:54 AM,47.5,36.7,66,29.97,10.0,West,18.4,32.2,N/A,,Overcast,260,2012-10-05 12:54:00
9:14 AM,47.5,36.7,66,29.97,10.0,West,21.9,27.6,N/A,,Overcast,260,2012-10-05 13:14:00
9:34 AM,47.3,36.0,65,29.97,10.0,WSW,18.4,27.6,N/A,,Overcast,250,2012-10-05 13:34:00
9:54 AM,47.5,36.1,65,29.97,10.0,West,16.1,26.5,N/A,,Overcast,260,2012-10-05 13:54:00
10:14 AM,47.3,36.0,65,29.97,10.0,WSW,16.1,25.3,N/A,,Overcast,250,2012-10-05 14:14:00
10:34 AM,47.8,36.7,65,29.98,10.0,WSW,17.3,23.0,N/A,,Overcast,250,2012-10-05 14:34:00
10:54 AM,48.2,37.2,66,29.97,10.0,WSW,17.3,24.2,N/A,,Overcast,250,2012-10-05 14:54:00
11:14 AM,48.6,36.3,63,29.97,10.0,WSW,17.3,23.0,N/A,,Overcast,250,2012-10-05 15:14:00
11:34 AM,48.4,36.5,64,29.97,10.0,WSW,16.1,25.3,N/A,,Overcast,250,2012-10-05 15:34:00
11:55 AM,49.6,36.5,61,29.96,10.0,WSW,20.7,25.3,N/A,,Mostly Cloudy,250,2012-10-05 15:55:00
12:14 PM,50.5,37.4,61,29.96,10.0,West,19.6,28.8,N/A,,Mostly Cloudy,260,2012-10-05 16:14:00
12:34 PM,51.4,36.9,58,29.97,10.0,SW,18.4,26.5,N/A,,Overcast,230,2012-10-05 16:34:00
12:55 PM,49.8,37.2,62,29.96,10.0,WSW,19.6,26.5,N/A,,Overcast,250,2012-10-05 16:55:00
1:14 PM,51.1,37.4,60,29.96,10.0,WSW,18.4,26.5,N/A,,Mostly Cloudy,240,2012-10-05 17:14:00
1:34 PM,51.1,37.8,60,29.96,10.0,WSW,13.8,25.3,N/A,,Mostly Cloudy,250,2012-10-05 17:34:00
1:54 PM,51.3,37.2,59,29.95,10.0,WSW,16.1,33.4,N/A,,Overcast,240,2012-10-05 17:54:00
2:34 PM,51.4,37.4,59,29.94,10.0,WSW,19.6,26.5,N/A,,Overcast,240,2012-10-05 18:34:00
2:54 PM,50.9,37.6,60,29.92,10.0,WSW,19.6,25.3,N/A,,Mostly Cloudy,240,2012-10-05 18:54:00
3:15 PM,50.5,37.9,62,29.92,10.0,WSW,18.4,24.2,N/A,,Mostly Cloudy,250,2012-10-05 19:15:00
3:34 PM,50.2,37.8,62,29.92,10.0,WSW,15.0,26.5,N/A,,Overcast,250,2012-10-05 19:34:00
3:54 PM,50.5,37.6,61,29.92,10.0,WSW,15.0,20.7,N/A,,Overcast,250,2012-10-05 19:54:00
4:15 PM,50.5,37.4,61,29.92,10.0,WSW,13.8,26.5,N/A,,Overcast,240,2012-10-05 20:15:00
4:34 PM,50.5,36.5,59,29.92,10.0,WSW,15.0,28.8,N/A,,Mostly Cloudy,240,2012-10-05 20:34:00
4:54 PM,50.2,36.9,60,29.91,10.0,WSW,17.3,25.3,N/A,,Overcast,250,2012-10-05 20:54:00
5:14 PM,50.2,36.1,59,29.91,10.0,SW,11.5,20.7,N/A,,Overcast,230,2012-10-05 21:14:00
5:34 PM,50.9,35.6,56,29.91,10.0,WSW,15.0,23.0,N/A,,Overcast,240,2012-10-05 21:34:00
5:54 PM,50.9,36.0,57,29.90,10.0,West,15.0,25.3,N/A,,Overcast,260,2012-10-05 21:54:00
6:14 PM,50.9,34.9,54,29.91,10.0,West,20.7,24.2,N/A,,Overcast,260,2012-10-05 22:14:00
6:34 PM,51.1,34.7,54,29.91,10.0,WSW,16.1,26.5,N/A,,Mostly Cloudy,250,2012-10-05 22:34:00
7:14 PM,50.9,34.2,53,29.90,10.0,WSW,18.4,25.3,N/A,,Overcast,250,2012-10-05 23:14:00
7:34 PM,50.9,33.3,51,29.90,10.0,West,18.4,28.8,N/A,,Overcast,260,2012-10-05 23:34:00
7:54 PM,50.9,33.4,51,29.90,10.0,WSW,17.3,26.5,N/A,,Overcast,250,2012-10-05 23:54:00
8:14 PM,51.3,34.0,52,29.89,10.0,WSW,19.6,25.3,N/A,,Overcast,250,2012-10-06 00:14:00
8:34 PM,50.7,35.6,56,29.89,10.0,WNW,13.8,25.3,N/A,,Overcast,290,2012-10-06 00:34:00
8:54 PM,50.0,35.4,57,29.90,10.0,WNW,17.3,23.0,N/A,,Overcast,290,2012-10-06 00:54:00
9:14 PM,49.1,34.9,58,29.91,10.0,West,21.9,26.5,N/A,,Overcast,280,2012-10-06 01:14:00
9:34 PM,48.6,34.5,58,29.91,10.0,WNW,20.7,28.8,N/A,,Overcast,290,2012-10-06 01:34:00
9:54 PM,48.2,33.4,57,29.91,10.0,West,25.3,32.2,N/A,,Overcast,280,2012-10-06 01:54:00
10:14 PM,47.7,32.5,56,29.91,10.0,WNW,20.7,27.6,N/A,,Overcast,290,2012-10-06 02:14:00
10:34 PM,47.5,32.5,56,29.90,10.0,WNW,19.6,29.9,N/A,,Overcast,290,2012-10-06 02:34:00
10:54 PM,47.5,32.4,56,29.90,10.0,West,24.2,29.9,N/A,,Overcast,280,2012-10-06 02:54:00
11:34 PM,47.3,32.0,55,29.89,10.0,West,23.0,28.8,N/A,,Overcast,280,2012-10-06 03:34:00
11:54 PM,46.9,29.7,51,29.89,10.0,West,19.6,26.5,N/A,,Overcast,280,2012-10-06 03:54:00